SZN6AW GOBD-GVNP

Flight info

Callsign SZN6AW
Flight time 1h 8m
Altitude 36000
Route MOGSA DCT SONVA DCT AREPU AREPU1H
Aircraft A321/M-SDE3FGHIRWY/LB1

Departure

Time 2026-05-08 14:44
Airport Blaise Diagne International Airport (GOBD)

Arrival

Time 2026-05-08 15:52
Airport Nelson Mandela International Airport (GVNP)
Time Latitude Longitude Altitude Speed Heading
2026-05-08 14:29 14.67180 -17.06865 297 ft 0 kts 122°
2026-05-08 14:36 14.67188 -17.06878 297 ft 3 kts 122°
2026-05-08 14:36 14.67198 -17.06894 297 ft 3 kts 122°
2026-05-08 14:37 14.67208 -17.06910 297 ft 3 kts 122°
2026-05-08 14:37 14.67217 -17.06926 298 ft 3 kts 122°
2026-05-08 14:37 14.67227 -17.06943 298 ft 2 kts 122°
2026-05-08 14:37 14.67232 -17.06950 298 ft 2 kts 122°
2026-05-08 14:38 14.67241 -17.06965 296 ft 2 kts 122°
2026-05-08 14:38 14.67252 -17.06978 297 ft 3 kts 169°
2026-05-08 14:38 14.67254 -17.06979 297 ft 0 kts 176°
2026-05-08 14:40 14.67212 -17.06978 294 ft 10 kts 179°
2026-05-08 14:40 14.67141 -17.06977 293 ft 10 kts 179°
2026-05-08 14:40 14.67083 -17.07006 294 ft 9 kts 238°
2026-05-08 14:40 14.67060 -17.07076 295 ft 10 kts 223°
2026-05-08 14:41 14.66995 -17.07091 297 ft 10 kts 179°
2026-05-08 14:41 14.66924 -17.07089 295 ft 12 kts 179°
2026-05-08 14:41 14.66814 -17.07089 293 ft 19 kts 180°
2026-05-08 14:41 14.66661 -17.07088 293 ft 25 kts 179°
2026-05-08 14:42 14.66476 -17.07086 293 ft 27 kts 179°
2026-05-08 14:42 14.66408 -17.07086 293 ft 7 kts 185°
2026-05-08 14:42 14.66370 -17.07109 294 ft 6 kts 234°
2026-05-08 14:42 14.66378 -17.07161 296 ft 11 kts 311°
2026-05-08 14:43 14.66463 -17.07216 295 ft 17 kts 331°
2026-05-08 14:43 14.66574 -17.07267 299 ft 22 kts 343°
2026-05-08 14:43 14.66939 -17.07280 298 ft 84 kts 359°
2026-05-08 14:43 14.67696 -17.07286 291 ft 134 kts 359°
2026-05-08 14:44 14.68735 -17.07301 524 ft 153 kts 358°
2026-05-08 14:44 14.69777 -17.07332 1133 ft 149 kts 359°
2026-05-08 14:44 14.70823 -17.07334 1798 ft 147 kts
2026-05-08 14:44 14.71846 -17.07352 2399 ft 150 kts 352°
2026-05-08 14:45 14.72804 -17.07840 2793 ft 163 kts 317°
2026-05-08 14:45 14.73272 -17.08910 3162 ft 174 kts 277°
2026-05-08 14:45 14.73210 -17.10167 3579 ft 175 kts 269°
2026-05-08 14:45 14.73106 -17.11415 4036 ft 174 kts 268°
2026-05-08 14:46 14.73012 -17.12686 4339 ft 185 kts 270°
2026-05-08 14:46 14.72949 -17.14076 4471 ft 202 kts 270°
2026-05-08 14:46 14.72899 -17.15576 4614 ft 216 kts 270°
2026-05-08 14:46 14.72859 -17.17179 4725 ft 232 kts 271°
2026-05-08 14:47 14.72828 -17.18909 4823 ft 252 kts 271°
2026-05-08 14:47 14.72804 -17.20726 5460 ft 250 kts 271°
2026-05-08 14:47 14.72783 -17.22516 6175 ft 249 kts 271°
2026-05-08 14:47 14.72767 -17.24311 6756 ft 251 kts 270°
2026-05-08 14:48 14.72751 -17.26126 7295 ft 255 kts 270°
2026-05-08 14:48 14.72736 -17.27965 7880 ft 257 kts 269°
2026-05-08 14:48 14.72721 -17.29821 8472 ft 260 kts 269°
2026-05-08 14:48 14.72705 -17.31706 9027 ft 264 kts 268°
2026-05-08 14:49 14.72690 -17.33617 9568 ft 269 kts 268°
2026-05-08 14:49 14.72676 -17.35552 10139 ft 271 kts 267°
2026-05-08 14:49 14.72663 -17.37513 10662 ft 274 kts 266°
2026-05-08 14:49 14.72650 -17.39477 11269 ft 274 kts 266°
2026-05-08 14:50 14.72636 -17.41445 11896 ft 274 kts 267°
2026-05-08 14:50 14.72623 -17.43412 12505 ft 275 kts 266°
2026-05-08 14:50 14.72607 -17.45393 13109 ft 276 kts 266°
2026-05-08 14:50 14.72588 -17.47381 13702 ft 279 kts 266°
2026-05-08 14:51 14.72566 -17.49442 13892 ft 297 kts 266°
2026-05-08 14:51 14.72541 -17.51652 13946 ft 319 kts 266°
2026-05-08 14:51 14.72516 -17.54023 13949 ft 341 kts 266°
2026-05-08 14:51 14.72495 -17.56546 13949 ft 361 kts 266°
2026-05-08 14:52 14.72472 -17.59201 13952 ft 376 kts 266°
2026-05-08 14:52 14.72433 -17.64628 13956 ft 381 kts 267°
2026-05-08 14:52 14.72417 -17.67372 13958 ft 382 kts 267°
2026-05-08 14:53 14.72398 -17.70112 13963 ft 382 kts 267°
2026-05-08 14:53 14.72378 -17.72854 13965 ft 382 kts 266°
2026-05-08 14:53 14.72356 -17.75596 13968 ft 382 kts 267°
2026-05-08 14:53 14.72331 -17.78338 13963 ft 382 kts 267°
2026-05-08 14:54 14.72305 -17.81084 13975 ft 382 kts 266°
2026-05-08 14:54 14.72278 -17.83826 13977 ft 382 kts 266°
2026-05-08 14:54 14.72252 -17.86568 13978 ft 382 kts 267°
2026-05-08 14:54 14.72227 -17.89310 13978 ft 382 kts 267°
2026-05-08 14:55 14.72201 -17.92052 13976 ft 381 kts 267°
2026-05-08 14:55 14.72175 -17.94794 13977 ft 382 kts 267°
2026-05-08 14:55 14.72150 -17.97533 13972 ft 382 kts 266°
2026-05-08 14:55 14.72123 -18.00272 13968 ft 382 kts 267°
2026-05-08 14:56 14.72096 -18.03014 13972 ft 381 kts 266°
2026-05-08 14:56 14.72067 -18.05757 13979 ft 381 kts 267°
2026-05-08 14:56 14.72039 -18.08492 13980 ft 381 kts 266°
2026-05-08 14:56 14.72009 -18.11233 13976 ft 381 kts 266°
2026-05-08 14:57 14.71977 -18.13927 13966 ft 381 kts 266°
2026-05-08 14:57 14.71945 -18.16659 13977 ft 380 kts 266°
2026-05-08 14:57 14.71912 -18.19390 13979 ft 380 kts 267°
2026-05-08 14:57 14.71881 -18.22122 13979 ft 380 kts 268°
2026-05-08 14:58 14.71852 -18.24857 13980 ft 380 kts 267°
2026-05-08 14:58 14.71819 -18.27591 13978 ft 380 kts 267°
2026-05-08 14:58 14.71786 -18.30324 13983 ft 380 kts 266°
2026-05-08 14:58 14.71754 -18.33056 13982 ft 380 kts 266°
2026-05-08 14:59 14.71722 -18.35789 13978 ft 380 kts 267°
2026-05-08 14:59 14.71660 -18.41254 13973 ft 380 kts 266°
2026-05-08 14:59 14.71627 -18.43990 13985 ft 380 kts 266°
2026-05-08 15:00 14.71593 -18.46715 13982 ft 379 kts 266°
2026-05-08 15:00 14.71558 -18.49435 13975 ft 379 kts 267°
2026-05-08 15:00 14.71523 -18.52157 13986 ft 379 kts 266°
2026-05-08 15:00 14.71489 -18.54873 13984 ft 379 kts 268°
2026-05-08 15:01 14.71458 -18.57589 13985 ft 378 kts 266°
2026-05-08 15:01 14.71429 -18.60309 13983 ft 378 kts 268°
2026-05-08 15:01 14.71394 -18.63025 13975 ft 378 kts 267°
2026-05-08 15:01 14.71358 -18.65742 13973 ft 378 kts 267°
2026-05-08 15:02 14.71324 -18.68461 13982 ft 378 kts 267°
2026-05-08 15:02 14.71289 -18.71172 13985 ft 378 kts 267°
2026-05-08 15:02 14.71254 -18.73888 13976 ft 378 kts 267°
2026-05-08 15:02 14.71218 -18.76598 13986 ft 378 kts 266°
2026-05-08 15:03 14.71181 -18.79316 13980 ft 378 kts 267°
2026-05-08 15:03 14.71143 -18.81995 13986 ft 378 kts 267°
2026-05-08 15:03 14.71104 -18.84711 13985 ft 378 kts 266°
2026-05-08 15:03 14.71064 -18.87423 13986 ft 378 kts 266°
2026-05-08 15:04 14.71026 -18.90139 13981 ft 378 kts 266°
2026-05-08 15:04 14.70990 -18.92854 13985 ft 378 kts 266°
2026-05-08 15:04 14.70952 -18.95570 13985 ft 378 kts 266°
2026-05-08 15:04 14.70913 -18.98287 13985 ft 378 kts 266°
2026-05-08 15:05 14.70888 -19.00120 13988 ft 378 kts 266°
2026-05-08 15:05 14.70837 -19.03708 13988 ft 378 kts 266°
2026-05-08 15:05 14.70809 -19.05545 13978 ft 378 kts 266°
2026-05-08 15:05 14.70767 -19.08256 13977 ft 378 kts 267°
2026-05-08 15:06 14.70726 -19.10971 13984 ft 378 kts 266°
2026-05-08 15:06 14.70686 -19.13650 13990 ft 378 kts 267°
2026-05-08 15:06 14.70646 -19.16365 13991 ft 378 kts 266°
2026-05-08 15:06 14.70609 -19.19087 13980 ft 379 kts 265°
2026-05-08 15:07 14.70570 -19.21810 13986 ft 379 kts 267°
2026-05-08 15:07 14.70531 -19.24528 13985 ft 379 kts 266°
2026-05-08 15:07 14.70490 -19.27250 13991 ft 379 kts 266°
2026-05-08 15:07 14.70446 -19.29966 13990 ft 379 kts 267°
2026-05-08 15:08 14.70403 -19.32685 13988 ft 378 kts 268°
2026-05-08 15:08 14.70359 -19.35401 13989 ft 378 kts 267°
2026-05-08 15:08 14.70316 -19.38117 13980 ft 378 kts 267°
2026-05-08 15:08 14.70272 -19.40833 13992 ft 378 kts 267°
2026-05-08 15:09 14.70228 -19.43546 13991 ft 378 kts 266°
2026-05-08 15:09 14.70180 -19.46266 13986 ft 378 kts 266°
2026-05-08 15:09 14.70133 -19.48986 13991 ft 379 kts 266°
2026-05-08 15:09 14.70088 -19.51711 13991 ft 379 kts 267°
2026-05-08 15:10 14.70043 -19.54434 13989 ft 380 kts 266°
2026-05-08 15:10 14.69997 -19.57161 13994 ft 380 kts 267°
2026-05-08 15:10 14.69950 -19.59887 13993 ft 380 kts 266°
2026-05-08 15:10 14.69901 -19.62615 13994 ft 379 kts 266°
2026-05-08 15:11 14.69854 -19.65339 13989 ft 379 kts 267°
2026-05-08 15:11 14.69807 -19.68062 13996 ft 379 kts 265°
2026-05-08 15:11 14.69762 -19.70794 14102 ft 382 kts 266°
2026-05-08 15:11 14.69718 -19.73529 14767 ft 375 kts 267°
2026-05-08 15:12 14.69677 -19.76146 15962 ft 355 kts 266°
2026-05-08 15:12 14.69639 -19.78620 17198 ft 333 kts 266°
2026-05-08 15:12 14.69599 -19.80936 18415 ft 312 kts 267°
2026-05-08 15:12 14.69559 -19.83125 19149 ft 307 kts 266°
2026-05-08 15:13 14.69511 -19.85384 19254 ft 321 kts 266°
2026-05-08 15:13 14.69462 -19.87742 19373 ft 335 kts 266°
2026-05-08 15:13 14.69410 -19.90192 19496 ft 348 kts 266°
2026-05-08 15:13 14.69358 -19.92738 19611 ft 361 kts 267°
2026-05-08 15:14 14.69312 -19.95344 20056 ft 357 kts 268°
2026-05-08 15:14 14.69273 -19.97832 21181 ft 336 kts 267°
2026-05-08 15:14 14.69235 -20.00171 22269 ft 318 kts 268°
2026-05-08 15:14 14.69196 -20.02426 22971 ft 312 kts 268°
2026-05-08 15:15 14.69153 -20.04659 23473 ft 311 kts 268°
2026-05-08 15:15 14.69109 -20.06880 23781 ft 315 kts 268°
2026-05-08 15:15 14.69067 -20.09135 24168 ft 314 kts 268°
2026-05-08 15:15 14.69022 -20.11406 24476 ft 317 kts 268°
2026-05-08 15:16 14.68980 -20.13684 24817 ft 318 kts 268°
2026-05-08 15:16 14.68937 -20.15967 25183 ft 318 kts 268°
2026-05-08 15:16 14.68893 -20.18264 25424 ft 323 kts 268°
2026-05-08 15:16 14.68849 -20.20619 25541 ft 333 kts 269°
2026-05-08 15:17 14.68987 -20.23033 25662 ft 342 kts 274°
2026-05-08 15:17 14.69198 -20.25510 25781 ft 350 kts 274°
2026-05-08 15:17 14.69413 -20.28045 25900 ft 358 kts 274°
2026-05-08 15:17 14.69632 -20.30635 26018 ft 366 kts 274°
2026-05-08 15:18 14.69856 -20.33279 26134 ft 372 kts 274°
2026-05-08 15:18 14.70081 -20.35965 26252 ft 378 kts 273°
2026-05-08 15:18 14.70304 -20.38664 26371 ft 384 kts 273°
2026-05-08 15:18 14.70532 -20.41433 26497 ft 389 kts 274°
2026-05-08 15:19 14.70764 -20.44245 26615 ft 395 kts 274°
2026-05-08 15:19 14.70998 -20.47086 26736 ft 401 kts 274°
2026-05-08 15:19 14.71237 -20.49975 26866 ft 407 kts 274°
2026-05-08 15:19 14.71480 -20.52908 26988 ft 412 kts 274°
2026-05-08 15:20 14.71724 -20.55883 27109 ft 417 kts 274°
2026-05-08 15:20 14.71969 -20.58886 27233 ft 422 kts 274°
2026-05-08 15:20 14.72219 -20.61929 27358 ft 427 kts 274°
2026-05-08 15:20 14.72472 -20.65001 27481 ft 432 kts 274°
2026-05-08 15:21 14.72724 -20.68106 27606 ft 436 kts 273°
2026-05-08 15:21 14.72975 -20.71237 27785 ft 438 kts 273°
2026-05-08 15:21 14.73226 -20.74378 27953 ft 439 kts 273°
2026-05-08 15:21 14.73483 -20.77523 28002 ft 439 kts 273°
2026-05-08 15:22 14.73742 -20.80665 27994 ft 439 kts 274°
2026-05-08 15:22 14.74003 -20.83804 27999 ft 439 kts 274°
2026-05-08 15:22 14.74262 -20.86944 28000 ft 439 kts 274°
2026-05-08 15:22 14.74519 -20.90096 27999 ft 439 kts 274°
2026-05-08 15:23 14.74774 -20.93243 27996 ft 439 kts 273°
2026-05-08 15:23 14.75025 -20.96381 27997 ft 439 kts 273°
2026-05-08 15:23 14.75525 -21.02673 27998 ft 439 kts 273°
2026-05-08 15:24 14.75774 -21.05815 27999 ft 439 kts 273°
2026-05-08 15:24 14.76025 -21.08961 27994 ft 439 kts 273°
2026-05-08 15:24 14.76278 -21.12103 27997 ft 439 kts 273°
2026-05-08 15:24 14.76531 -21.15244 27999 ft 439 kts 274°
2026-05-08 15:25 14.77034 -21.21507 28000 ft 440 kts 274°
2026-05-08 15:25 14.77284 -21.24655 27993 ft 440 kts 273°
2026-05-08 15:25 14.77531 -21.27803 28001 ft 440 kts 273°
2026-05-08 15:26 14.78026 -21.34104 28002 ft 440 kts 273°
2026-05-08 15:26 14.78276 -21.37258 27998 ft 440 kts 274°
2026-05-08 15:26 14.78527 -21.40410 27991 ft 440 kts 274°
2026-05-08 15:27 14.78777 -21.43562 27998 ft 440 kts 274°
2026-05-08 15:27 14.79027 -21.46713 27998 ft 440 kts 273°
2026-05-08 15:27 14.79272 -21.49864 27999 ft 441 kts 274°
2026-05-08 15:27 14.79516 -21.53029 27996 ft 442 kts 274°
2026-05-08 15:28 14.79763 -21.56197 27991 ft 442 kts 274°
2026-05-08 15:28 14.80012 -21.59363 27989 ft 442 kts 274°
2026-05-08 15:28 14.80260 -21.62529 27998 ft 442 kts 274°
2026-05-08 15:28 14.80507 -21.65698 28000 ft 442 kts 274°
2026-05-08 15:29 14.80753 -21.68872 28000 ft 442 kts 274°
2026-05-08 15:29 14.80999 -21.72036 28000 ft 442 kts 274°
2026-05-08 15:29 14.81242 -21.75210 27998 ft 442 kts 274°
2026-05-08 15:29 14.81482 -21.78385 28000 ft 442 kts 273°
2026-05-08 15:30 14.81969 -21.84727 27999 ft 443 kts 274°
2026-05-08 15:30 14.82455 -21.91045 27923 ft 444 kts 274°
2026-05-08 15:31 14.82698 -21.94226 27669 ft 444 kts 274°
2026-05-08 15:31 14.82938 -21.97411 27421 ft 443 kts 274°
2026-05-08 15:31 14.83176 -22.00586 27176 ft 442 kts 274°
2026-05-08 15:31 14.83411 -22.03754 26933 ft 442 kts 274°
2026-05-08 15:32 14.83584 -22.06914 26692 ft 440 kts 269°
2026-05-08 15:32 14.83334 -22.10057 26453 ft 438 kts 261°
2026-05-08 15:32 14.82824 -22.13156 26212 ft 437 kts 260°
2026-05-08 15:32 14.82308 -22.16247 25983 ft 436 kts 260°
2026-05-08 15:33 14.81790 -22.19335 25751 ft 435 kts 260°
2026-05-08 15:33 14.81274 -22.22413 25520 ft 433 kts 260°
2026-05-08 15:33 14.80760 -22.25472 25289 ft 432 kts 260°
2026-05-08 15:33 14.80247 -22.28531 25063 ft 432 kts 260°
2026-05-08 15:34 14.79739 -22.31554 24842 ft 431 kts 260°
2026-05-08 15:34 14.79221 -22.34638 24612 ft 428 kts 260°
2026-05-08 15:34 14.78711 -22.37668 24388 ft 428 kts 260°
2026-05-08 15:34 14.78208 -22.40675 24185 ft 430 kts 260°
2026-05-08 15:35 14.77702 -22.43697 23697 ft 425 kts 260°
2026-05-08 15:35 14.77196 -22.46696 22999 ft 421 kts 259°
2026-05-08 15:35 14.76697 -22.49651 22408 ft 414 kts 259°
2026-05-08 15:35 14.76208 -22.52552 21836 ft 406 kts 259°
2026-05-08 15:36 14.75726 -22.55403 21307 ft 398 kts 259°
2026-05-08 15:36 14.75413 -22.57256 20957 ft 393 kts 259°
2026-05-08 15:36 14.74790 -22.60935 20299 ft 384 kts 259°
2026-05-08 15:36 14.74335 -22.63635 19817 ft 380 kts 258°
2026-05-08 15:37 14.73882 -22.66313 19358 ft 377 kts 258°
2026-05-08 15:37 14.73434 -22.68965 18903 ft 373 kts 259°
2026-05-08 15:37 14.72991 -22.71592 18446 ft 371 kts 258°
2026-05-08 15:37 14.72546 -22.74217 17948 ft 370 kts 258°
2026-05-08 15:38 14.72103 -22.76819 17484 ft 367 kts 258°
2026-05-08 15:38 14.71663 -22.79409 17021 ft 364 kts 258°
2026-05-08 15:38 14.71226 -22.81972 16553 ft 362 kts 258°
2026-05-08 15:38 14.70952 -22.84552 16088 ft 361 kts 268°
2026-05-08 15:39 14.70978 -22.87149 15612 ft 361 kts 269°
2026-05-08 15:39 14.71007 -22.89727 15137 ft 358 kts 269°
2026-05-08 15:39 14.71031 -22.92296 14654 ft 357 kts 268°
2026-05-08 15:39 14.71053 -22.94851 14167 ft 355 kts 267°
2026-05-08 15:40 14.71073 -22.97394 13664 ft 353 kts 267°
2026-05-08 15:40 14.71092 -22.99922 13147 ft 351 kts 268°
2026-05-08 15:40 14.71112 -23.02434 12653 ft 348 kts 269°
2026-05-08 15:40 14.71131 -23.04929 12153 ft 346 kts 269°
2026-05-08 15:41 14.71150 -23.07407 11653 ft 344 kts 268°
2026-05-08 15:41 14.71169 -23.09867 11149 ft 342 kts 268°
2026-05-08 15:41 14.71191 -23.12314 10750 ft 336 kts 269°
2026-05-08 15:41 14.71215 -23.14669 10631 ft 321 kts 268°
2026-05-08 15:42 14.71241 -23.16924 10491 ft 307 kts 269°
2026-05-08 15:42 14.71260 -23.19108 10231 ft 301 kts 269°
2026-05-08 15:42 14.71274 -23.21260 10000 ft 299 kts 267°
2026-05-08 15:42 14.71286 -23.23404 9853 ft 298 kts 267°
2026-05-08 15:43 14.71300 -23.25541 9735 ft 298 kts 268°
2026-05-08 15:43 14.71316 -23.27680 9535 ft 299 kts 268°
2026-05-08 15:43 14.71331 -23.29823 9059 ft 298 kts 267°
2026-05-08 15:43 14.71347 -23.31966 8572 ft 298 kts 268°
2026-05-08 15:44 14.71363 -23.34091 8129 ft 296 kts 269°
2026-05-08 15:44 14.71379 -23.36205 7685 ft 294 kts 269°
2026-05-08 15:44 14.71393 -23.38300 7311 ft 290 kts 269°
2026-05-08 15:44 14.71408 -23.40388 6871 ft 289 kts 269°
2026-05-08 15:45 14.71423 -23.42453 6586 ft 283 kts 269°
2026-05-08 15:45 14.71437 -23.44435 6426 ft 270 kts 269°
2026-05-08 15:45 14.71519 -23.46330 5989 ft 258 kts 279°
2026-05-08 15:45 14.71972 -23.48050 5867 ft 243 kts 291°
2026-05-08 15:46 14.72591 -23.49641 5482 ft 240 kts 292°
2026-05-08 15:46 14.73213 -23.51229 5141 ft 236 kts 292°
2026-05-08 15:46 14.73820 -23.52777 4817 ft 229 kts 292°
2026-05-08 15:46 14.74440 -23.54247 4479 ft 218 kts 301°
2026-05-08 15:47 14.75507 -23.55267 4180 ft 207 kts 334°
2026-05-08 15:47 14.76851 -23.55514 3905 ft 191 kts
2026-05-08 15:47 14.78061 -23.55117 3667 ft 174 kts 21°
2026-05-08 15:47 14.79133 -23.54667 3407 ft 159 kts 20°
2026-05-08 15:48 14.81051 -23.53876 3047 ft 141 kts 20°
2026-05-08 15:48 14.81964 -23.53501 2989 ft 141 kts 20°
2026-05-08 15:48 14.82560 -23.53257 2856 ft 138 kts 20°
2026-05-08 15:49 14.83453 -23.52890 2561 ft 137 kts 21°
2026-05-08 15:49 14.84334 -23.52527 2279 ft 136 kts 21°
2026-05-08 15:49 14.85208 -23.52166 2020 ft 134 kts 21°
2026-05-08 15:49 14.86097 -23.51793 1872 ft 136 kts 22°
2026-05-08 15:50 14.86964 -23.51428 1777 ft 136 kts 22°
2026-05-08 15:50 14.87851 -23.51065 1685 ft 137 kts 22°
2026-05-08 15:50 14.88736 -23.50691 1512 ft 138 kts 23°
2026-05-08 15:50 14.89607 -23.50307 1324 ft 136 kts 22°
2026-05-08 15:51 14.90485 -23.49932 1075 ft 135 kts 22°
2026-05-08 15:51 14.91370 -23.49586 907 ft 136 kts 21°
2026-05-08 15:51 14.92250 -23.49239 659 ft 135 kts 23°
2026-05-08 15:51 14.93108 -23.48884 423 ft 132 kts 23°
2026-05-08 15:52 14.93948 -23.48537 346 ft 126 kts 23°
2026-05-08 15:52 14.94613 -23.48260 360 ft 64 kts 21°
2026-05-08 15:52 14.94864 -23.48157 371 ft 24 kts 22°
2026-05-08 15:52 14.94967 -23.48101 375 ft 9 kts 340°
2026-05-08 15:53 14.94944 -23.48137 371 ft 17 kts 204°
2026-05-08 15:53 14.94769 -23.48201 362 ft 35 kts 204°
2026-05-08 15:53 14.94589 -23.48277 355 ft 18 kts 206°
2026-05-08 15:53 14.94562 -23.48360 350 ft 7 kts 288°
2026-05-08 15:54 14.94581 -23.48408 347 ft 8 kts 289°
2026-05-08 15:54 14.94555 -23.48461 355 ft 10 kts 214°
2026-05-08 15:54 14.94525 -23.48475 346 ft 3 kts 202°
2026-05-08 15:54 14.94515 -23.48494 349 ft 5 kts 257°
2026-05-08 15:55 14.94519 -23.48525 337 ft 5 kts 289°
2026-05-08 15:55 14.94523 -23.48537 336 ft 0 kts 290°